| time (UTC) | temp F | wind direction | speed MPH | gust MPH | rain 1hr in | rain 24hr in | rain mn in | humidity % | barometer mb |
| 20260906083012 | 69 | 130 | 0.0 | 0.0 | 0.00 | 0.12 | 0.00 | 94 | 1015.7 |
| 20260906082508 | 69 | 130 | 0.0 | 0.0 | 0.00 | 0.12 | 0.00 | 94 | 1015.7 |
| 20260906082126 | 69 | 161 | 0.0 | 1.0 | 0.00 | 0.00 | 0.01 | 92 | 1010.2 |
| 20260906082007 | 69 | 130 | 0.0 | 0.0 | 0.00 | 0.12 | 0.00 | 94 | 1015.7 |
| 20260906081521 | 69 | 130 | 0.0 | 1.0 | 0.00 | 0.12 | 0.00 | 94 | 1015.7 |
| 20260906081125 | 70 | 161 | 0.0 | 2.0 | 0.00 | 0.00 | 0.01 | 93 | 1010.2 |
| 20260906081012 | 69 | 130 | 0.0 | 2.0 | 0.00 | 0.12 | 0.00 | 94 | 1015.7 |
| 20260906080503 | 69 | 130 | 1.0 | 2.0 | 0.00 | 0.12 | 0.00 | 94 | 1015.7 |
| 20260906080124 | 70 | 161 | 2.0 | 3.0 | 0.00 | 0.00 | 0.01 | 92 | 1010.1 |
| 20260906080019 | 69 | 109 | 1.0 | 2.0 | 0.00 | 0.12 | 0.00 | 94 | 1015.6 |
| 20260906075512 | 69 | 96 | 0.0 | 2.0 | 0.00 | 0.12 | 0.00 | 94 | 1015.6 |
| 20260906075014 | 69 | 195 | 1.0 | 2.0 | 0.00 | 0.12 | 0.00 | 94 | 1015.5 |
| 20260906074512 | 69 | 243 | 0.0 | 0.0 | 0.00 | 0.12 | 0.00 | 94 | 1015.4 |
| 20260906074122 | 69 | 170 | 0.0 | 0.0 | 0.00 | 0.00 | 0.01 | 92 | 1009.7 |
| 20260906074012 | 69 | 243 | 0.0 | 0.0 | 0.00 | 0.12 | 0.00 | 94 | 1015.3 |
| 20260906073517 | 69 | 243 | 0.0 | 0.0 | 0.00 | 0.12 | 0.00 | 93 | 1015.2 |
| 20260906073121 | 70 | 170 | 0.0 | 0.0 | 0.00 | 0.00 | 0.01 | 92 | 1009.5 |
| 20260906073010 | 69 | 244 | 0.0 | 0.0 | 0.00 | 0.12 | 0.00 | 94 | 1015.3 |
| 20260906072507 | 69 | 243 | 0.0 | 0.0 | 0.00 | 0.12 | 0.00 | 93 | 1015.3 |
| 20260906072119 | 70 | 170 | 0.0 | 0.0 | 0.00 | 0.00 | 0.01 | 92 | 1009.8 |
| 20260906072007 | 69 | 244 | 0.0 | 0.0 | 0.00 | 0.12 | 0.00 | 93 | 1015.4 |
| 20260906071524 | 69 | 244 | 0.0 | 0.0 | 0.00 | 0.12 | 0.00 | 93 | 1015.5 |
| 20260906071004 | 69 | 244 | 0.0 | 0.0 | 0.00 | 0.12 | 0.00 | 94 | 1015.6 |
| 20260906070511 | 69 | 243 | 0.0 | 0.0 | 0.00 | 0.12 | 0.00 | 93 | 1015.7 |
| 20260906070118 | 70 | 170 | 0.0 | 0.0 | 0.00 | 0.00 | 0.01 | 92 | 1010.0 |
| 20260906070023 | 69 | 243 | 0.0 | 0.0 | 0.00 | 0.12 | 0.00 | 93 | 1015.6 |
| 20260906065514 | 69 | 243 | 0.0 | 0.0 | 0.00 | 0.12 | 0.00 | 93 | 1015.6 |
| 20260906065117 | 70 | 170 | 0.0 | 0.0 | 0.00 | 0.00 | 0.01 | 92 | 1010.1 |
| 20260906065010 | 69 | 243 | 0.0 | 0.0 | 0.00 | 0.12 | 0.00 | 93 | 1015.7 |
| 20260906064524 | 70 | 244 | 0.0 | 0.0 | 0.00 | 0.12 | 0.00 | 93 | 1015.8 |
| 20260906064116 | 70 | 170 | 0.0 | 0.0 | 0.00 | 0.00 | 0.01 | 92 | 1010.3 |
| 20260906064016 | 70 | 244 | 0.0 | 0.0 | 0.00 | 0.12 | 0.00 | 93 | 1015.9 |
| 20260906063507 | 70 | 243 | 0.0 | 0.0 | 0.00 | 0.12 | 0.00 | 93 | 1015.8 |
| 20260906063115 | 70 | 170 | 0.0 | 0.0 | 0.00 | 0.00 | 0.01 | 92 | 1010.3 |
| 20260906063016 | 70 | 243 | 0.0 | 0.0 | 0.00 | 0.12 | 0.00 | 93 | 1015.9 |
| 20260906062521 | 70 | 243 | 0.0 | 0.0 | 0.00 | 0.12 | 0.00 | 93 | 1016.1 |
| 20260906062113 | 71 | 170 | 0.0 | 0.0 | 0.00 | 0.00 | 0.01 | 92 | 1010.6 |
| 20260906062019 | 70 | 243 | 0.0 | 0.0 | 0.00 | 0.12 | 0.00 | 93 | 1016.2 |
| 20260906061514 | 70 | 244 | 0.0 | 2.0 | 0.00 | 0.12 | 0.00 | 93 | 1016.2 |
| 20260906061015 | 70 | 244 | 0.0 | 2.0 | 0.00 | 0.12 | 0.00 | 93 | 1016.1 |
| 20260906060509 | 70 | 176 | 0.0 | 2.0 | 0.00 | 0.12 | 0.00 | 93 | 1016.2 |
| 20260906060111 | 71 | 170 | 0.0 | 0.0 | 0.00 | 0.00 | 0.01 | 91 | 1010.7 |
| 20260906060024 | 70 | 119 | 0.0 | 0.0 | 0.00 | 0.12 | 0.00 | 93 | 1016.3 |
| 20260906055511 | 70 | 176 | 0.0 | 0.0 | 0.00 | 0.12 | 0.00 | 92 | 1016.3 |
| 20260906055111 | 71 | 170 | 0.0 | 0.0 | 0.00 | 0.00 | 0.01 | 91 | 1010.7 |
| 20260906055013 | 70 | 176 | 0.0 | 0.0 | 0.00 | 0.12 | 0.00 | 92 | 1016.3 |
| 20260906054527 | 70 | 176 | 0.0 | 0.0 | 0.00 | 0.12 | 0.00 | 92 | 1016.3 |
| 20260906054110 | 71 | 170 | 0.0 | 0.0 | 0.00 | 0.00 | 0.01 | 91 | 1010.7 |
| 20260906054009 | 70 | 176 | 0.0 | 0.0 | 0.00 | 0.12 | 0.00 | 92 | 1016.2 |
| 20260906053514 | 70 | 176 | 0.0 | 0.0 | 0.00 | 0.12 | 0.00 | 92 | 1016.3 |
| 20260906053109 | 71 | 170 | 0.0 | 0.0 | 0.00 | 0.00 | 0.01 | 91 | 1010.8 |
| 20260906053030 | 70 | 176 | 0.0 | 0.0 | 0.00 | 0.12 | 0.00 | 92 | 1016.4 |
| 20260906052516 | 70 | 176 | 0.0 | 0.0 | 0.00 | 0.12 | 0.00 | 92 | 1016.4 |
| 20260906052012 | 70 | 176 | 0.0 | 0.0 | 0.00 | 0.12 | 0.00 | 92 | 1016.4 |
| 20260906051527 | 70 | 176 | 0.0 | 0.0 | 0.00 | 0.12 | 0.00 | 92 | 1016.4 |
| 20260906051107 | 71 | 170 | 0.0 | 0.0 | 0.00 | 0.00 | 0.01 | 91 | 1010.9 |
| 20260906051021 | 70 | 176 | 0.0 | 1.0 | 0.00 | 0.12 | 0.00 | 92 | 1016.5 |
| 20260906050513 | 70 | 176 | 0.0 | 3.0 | 0.00 | 0.12 | 0.00 | 92 | 1016.6 |
| 20260906050105 | 72 | 170 | 0.0 | 2.0 | 0.00 | 0.00 | 0.01 | 91 | 1011.0 |
| 20260906050017 | 70 | 165 | 1.0 | 3.0 | 0.00 | 0.12 | 0.00 | 92 | 1016.6 |
| 20260906045513 | 71 | 129 | 0.0 | 0.0 | 0.00 | 0.12 | 0.00 | 92 | 1016.5 |
| 20260906045104 | 71 | 170 | 1.0 | 3.0 | 0.00 | 0.00 | 0.01 | 91 | 1010.9 |
| 20260906045011 | 71 | 129 | 0.0 | 0.0 | 0.00 | 0.12 | 0.00 | 91 | 1016.4 |
| 20260906044520 | 71 | 129 | 0.0 | 0.0 | 0.00 | 0.12 | 0.00 | 91 | 1016.5 |
| 20260906044103 | 71 | 170 | 0.0 | 0.0 | 0.00 | 0.00 | 0.01 | 90 | 1010.9 |
| 20260906044014 | 71 | 98 | 0.0 | 0.0 | 0.00 | 0.12 | 0.00 | 92 | 1016.5 |
| 20260906043515 | 71 | 98 | 0.0 | 0.0 | 0.00 | 0.12 | 0.00 | 91 | 1016.4 |
| 20260906043103 | 72 | 170 | 0.0 | 0.0 | 0.00 | 0.00 | 0.01 | 89 | 1010.6 |
| 20260906043032 | 71 | 98 | 0.0 | 0.0 | 0.00 | 0.12 | 0.00 | 90 | 1016.2 |
| 20260906042514 | 71 | 98 | 0.0 | 0.0 | 0.00 | 0.12 | 0.00 | 90 | 1016.3 |
| 20260906042101 | 72 | 170 | 0.0 | 0.0 | 0.00 | 0.00 | 0.01 | 88 | 1010.7 |
| 20260906042014 | 71 | 98 | 0.0 | 0.0 | 0.00 | 0.12 | 0.00 | 90 | 1016.4 |
| 20260906041535 | 71 | 98 | 0.0 | 0.0 | 0.00 | 0.12 | 0.00 | 90 | 1016.4 |
| 20260906041100 | 72 | 170 | 0.0 | 0.0 | 0.00 | 0.00 | 0.01 | 88 | 1010.8 |
| 20260906041010 | 72 | 98 | 0.0 | 0.0 | 0.00 | 0.12 | 0.00 | 90 | 1016.4 |
| 20260906040514 | 72 | 98 | 0.0 | 0.0 | 0.00 | 0.12 | 0.00 | 90 | 1016.3 |
| 20260906040059 | 73 | 170 | 0.0 | 0.0 | 0.00 | 0.00 | 0.00 | 89 | 1010.6 |
| 20260906040035 | 72 | 98 | 0.0 | 0.0 | 0.00 | 0.12 | 0.00 | 89 | 1016.3 |
| 20260906035519 | 72 | 98 | 0.0 | 0.0 | 0.00 | 0.12 | 0.12 | 90 | 1016.3 |
| 20260906035058 | 73 | 170 | 0.0 | 1.0 | 0.00 | 0.00 | 0.06 | 88 | 1010.7 |
| 20260906035013 | 72 | 98 | 0.0 | 0.0 | 0.00 | 0.12 | 0.12 | 90 | 1016.3 |
| 20260906034537 | 72 | 140 | 0.0 | 0.0 | 0.00 | 0.12 | 0.12 | 89 | 1016.3 |
| 20260906034057 | 73 | 170 | 0.0 | 0.0 | 0.00 | 0.00 | 0.06 | 88 | 1010.7 |
| 20260906034014 | 72 | 140 | 0.0 | 2.0 | 0.00 | 0.12 | 0.12 | 90 | 1016.4 |
| 20260906033511 | 72 | 124 | 0.0 | 2.0 | 0.00 | 0.12 | 0.12 | 90 | 1016.4 |
| 20260906033056 | 73 | 170 | 0.0 | 0.0 | 0.00 | 0.00 | 0.06 | 89 | 1010.7 |
| 20260906033031 | 72 | 123 | 1.0 | 5.0 | 0.00 | 0.12 | 0.12 | 90 | 1016.4 |
| 20260906032513 | 72 | 179 | 2.0 | 5.0 | 0.00 | 0.12 | 0.12 | 90 | 1016.5 |
| 20260906032055 | 73 | 170 | 4.0 | 4.0 | 0.00 | 0.00 | 0.06 | 89 | 1010.9 |
| 20260906032017 | 72 | 217 | 2.0 | 5.0 | 0.00 | 0.12 | 0.12 | 91 | 1016.6 |
| 20260906031529 | 72 | 157 | 1.0 | 5.0 | 0.00 | 0.12 | 0.12 | 91 | 1016.6 |
| 20260906031054 | 72 | 154 | 1.0 | 5.0 | 0.00 | 0.00 | 0.06 | 89 | 1011.0 |
| 20260906031014 | 71 | 166 | 3.0 | 5.0 | 0.00 | 0.12 | 0.12 | 91 | 1016.7 |
| 20260906030521 | 71 | 140 | 2.0 | 3.0 | 0.00 | 0.12 | 0.12 | 91 | 1016.7 |
| 20260906030053 | 72 | 178 | 0.0 | 0.0 | 0.00 | 0.00 | 0.06 | 89 | 1011.0 |
| 20260906030035 | 72 | 76 | 1.0 | 2.0 | 0.00 | 0.12 | 0.12 | 90 | 1016.7 |
| 20260906025519 | 72 | 76 | 1.0 | 2.0 | 0.00 | 0.12 | 0.12 | 90 | 1016.7 |
| 20260906025052 | 73 | 178 | 0.0 | 0.0 | 0.00 | 0.00 | 0.06 | 88 | 1011.0 |
| 20260906025016 | 72 | 76 | 1.0 | 2.0 | 0.00 | 0.12 | 0.12 | 90 | 1016.6 |
| 20260906024536 | 72 | 76 | 0.0 | 2.0 | 0.00 | 0.12 | 0.12 | 90 | 1016.6 |
| 20260906024051 | 73 | 178 | 0.0 | 0.0 | 0.00 | 0.00 | 0.06 | 88 | 1011.0 |
| 20260906024015 | 72 | 76 | 1.0 | 2.0 | 0.00 | 0.12 | 0.12 | 90 | 1016.7 |
| 20260906023515 | 72 | 76 | 0.0 | 2.0 | 0.00 | 0.12 | 0.12 | 90 | 1016.7 |
| 20260906023050 | 73 | 178 | 0.0 | 0.0 | 0.00 | 0.00 | 0.06 | 89 | 1011.0 |
| 20260906023029 | 72 | 352 | 0.0 | 2.0 | 0.00 | 0.12 | 0.12 | 90 | 1016.7 |
| 20260906022512 | 72 | 352 | 0.0 | 2.0 | 0.00 | 0.12 | 0.12 | 89 | 1016.6 |
| 20260906022049 | 73 | 178 | 0.0 | 0.0 | 0.00 | 0.00 | 0.06 | 89 | 1010.8 |
| 20260906022012 | 72 | 352 | 0.0 | 3.0 | 0.00 | 0.12 | 0.12 | 89 | 1016.5 |
| 20260906021505 | 72 | 347 | 1.0 | 3.0 | 0.00 | 0.12 | 0.12 | 89 | 1016.4 |
| 20260906021048 | 73 | 178 | 0.0 | 0.0 | 0.00 | 0.00 | 0.06 | 89 | 1010.7 |
| 20260906021002 | 72 | 5 | 1.0 | 2.0 | 0.00 | 0.12 | 0.12 | 89 | 1016.5 |
| 20260906020507 | 72 | 107 | 0.0 | 2.0 | 0.00 | 0.12 | 0.12 | 89 | 1016.4 |
| 20260906020047 | 73 | 178 | 0.0 | 0.0 | 0.00 | 0.00 | 0.06 | 89 | 1010.6 |
| 20260906020009 | 72 | 107 | 0.0 | 2.0 | 0.00 | 0.12 | 0.12 | 89 | 1016.4 |
| 20260906015508 | 72 | 107 | 0.0 | 1.0 | 0.00 | 0.12 | 0.12 | 89 | 1016.4 |
| 20260906015046 | 73 | 178 | 0.0 | 0.0 | 0.00 | 0.00 | 0.06 | 89 | 1010.6 |
| 20260906015007 | 72 | 107 | 0.0 | 1.0 | 0.00 | 0.12 | 0.12 | 89 | 1016.3 |
| 20260906014516 | 73 | 107 | 0.0 | 2.0 | 0.00 | 0.12 | 0.12 | 89 | 1016.4 |
| 20260906014044 | 73 | 178 | 0.0 | 0.0 | 0.00 | 0.00 | 0.06 | 88 | 1010.6 |
| 20260906014006 | 73 | 106 | 0.0 | 2.0 | 0.00 | 0.12 | 0.12 | 89 | 1016.4 |
| 20260906013510 | 73 | 107 | 0.0 | 0.0 | 0.00 | 0.12 | 0.12 | 88 | 1016.2 |
| 20260906013044 | 73 | 178 | 0.0 | 0.0 | 0.00 | 0.00 | 0.06 | 87 | 1010.3 |
| 20260906013024 | 73 | 107 | 0.0 | 0.0 | 0.00 | 0.12 | 0.12 | 88 | 1016.0 |
| 20260906012513 | 73 | 107 | 0.0 | 1.0 | 0.00 | 0.12 | 0.12 | 88 | 1016.0 |
| 20260906012008 | 73 | 107 | 0.0 | 1.0 | 0.00 | 0.12 | 0.12 | 87 | 1015.8 |
| 20260906011520 | 73 | 107 | 0.0 | 1.0 | 0.00 | 0.12 | 0.12 | 87 | 1015.8 |
| 20260906011041 | 74 | 178 | 0.0 | 2.0 | 0.00 | 0.00 | 0.06 | 87 | 1010.0 |
| 20260906011016 | 73 | 107 | 0.0 | 2.0 | 0.00 | 0.12 | 0.12 | 87 | 1015.8 |
| 20260906010506 | 73 | 107 | 0.0 | 2.0 | 0.00 | 0.12 | 0.12 | 87 | 1015.8 |
| 20260906010040 | 74 | 178 | 2.0 | 3.0 | 0.00 | 0.00 | 0.05 | 86 | 1009.8 |
| 20260906010008 | 74 | 107 | 1.0 | 2.0 | 0.00 | 0.12 | 0.12 | 87 | 1015.6 |
| 20260906005507 | 74 | 130 | 0.0 | 2.0 | 0.00 | 0.12 | 0.12 | 86 | 1015.8 |
| 20260906005040 | 74 | 178 | 0.0 | 2.0 | 0.00 | 0.00 | 0.05 | 85 | 1010.0 |
| 20260906005008 | 74 | 130 | 0.0 | 3.0 | 0.00 | 0.12 | 0.12 | 86 | 1015.8 |
| 20260906004514 | 74 | 98 | 1.0 | 3.0 | 0.00 | 0.12 | 0.12 | 86 | 1015.8 |
| 20260906004008 | 75 | 150 | 0.0 | 0.0 | 0.00 | 0.12 | 0.12 | 85 | 1015.8 |
| 20260906003512 | 75 | 150 | 0.0 | 1.0 | 0.00 | 0.12 | 0.12 | 84 | 1015.7 |
| 20260906003038 | 76 | 236 | 0.0 | 0.0 | 0.00 | 0.00 | 0.05 | 83 | 1009.8 |
| 20260906003008 | 75 | 150 | 0.0 | 1.0 | 0.00 | 0.12 | 0.12 | 83 | 1015.7 |
| 20260906002510 | 76 | 150 | 0.0 | 2.0 | 0.00 | 0.12 | 0.12 | 83 | 1015.7 |
| 20260906002037 | 76 | 236 | 0.0 | 1.0 | 0.00 | 0.00 | 0.05 | 81 | 1009.9 |
| 20260906002014 | 76 | 150 | 0.0 | 2.0 | 0.00 | 0.12 | 0.12 | 83 | 1015.7 |
| 20260906001542 | 76 | 150 | 0.0 | 1.0 | 0.00 | 0.12 | 0.12 | 82 | 1015.7 |
| 20260906001035 | 77 | 236 | 0.0 | 1.0 | 0.00 | 0.00 | 0.05 | 82 | 1009.7 |
| 20260906001008 | 77 | 150 | 0.0 | 2.0 | 0.00 | 0.12 | 0.12 | 82 | 1015.7 |
| 20260906000512 | 77 | 150 | 0.0 | 2.0 | 0.00 | 0.12 | 0.12 | 81 | 1015.8 |
| 20260906000035 | 77 | 236 | 0.0 | 2.0 | 0.00 | 0.00 | 0.04 | 81 | 1009.8 |
| 20260906000030 | 77 | 150 | 0.0 | 0.0 | 0.00 | 0.12 | 0.12 | 80 | 1015.9 |
| 20260905235515 | 78 | 150 | 0.0 | 2.0 | 0.00 | 0.12 | 0.12 | 79 | 1015.9 |
| 20260905235012 | 78 | 150 | 0.0 | 2.0 | 0.00 | 0.12 | 0.12 | 79 | 1015.6 |
| 20260905234511 | 78 | 150 | 0.0 | 2.0 | 0.00 | 0.12 | 0.12 | 78 | 1015.6 |
| 20260905234032 | 79 | 236 | 2.0 | 2.0 | 0.00 | 0.00 | 0.04 | 76 | 1009.7 |
| 20260905234006 | 79 | 150 | 0.0 | 2.0 | 0.00 | 0.12 | 0.12 | 76 | 1015.7 |
| 20260905233508 | 80 | 90 | 0.0 | 2.0 | 0.00 | 0.12 | 0.12 | 75 | 1015.8 |
| 20260905233031 | 80 | 236 | 0.0 | 1.0 | 0.00 | 0.00 | 0.04 | 75 | 1009.7 |
| 20260905233021 | 80 | 282 | 0.0 | 2.0 | 0.00 | 0.12 | 0.12 | 75 | 1015.7 |
| 20260905232509 | 81 | 259 | 0.0 | 1.0 | 0.00 | 0.12 | 0.12 | 74 | 1015.5 |
| 20260905232031 | 80 | 236 | 0.0 | 2.0 | 0.00 | 0.00 | 0.04 | 75 | 1009.7 |
| 20260905232012 | 81 | 259 | 0.0 | 1.0 | 0.00 | 0.12 | 0.12 | 74 | 1015.6 |
| 20260905231517 | 82 | 259 | 1.0 | 1.0 | 0.00 | 0.12 | 0.12 | 72 | 1015.6 |
| 20260905231017 | 82 | 259 | 0.0 | 0.0 | 0.00 | 0.12 | 0.12 | 71 | 1015.6 |
| 20260905230515 | 83 | 259 | 0.0 | 0.0 | 0.00 | 0.12 | 0.12 | 71 | 1015.6 |
| 20260905230028 | 83 | 236 | 1.0 | 2.0 | 0.00 | 0.00 | 0.03 | 72 | 1009.7 |
| 20260905230010 | 84 | 259 | 0.0 | 0.0 | 0.00 | 0.12 | 0.12 | 70 | 1015.7 |
| 20260905225510 | 84 | 259 | 0.0 | 0.0 | 0.00 | 0.12 | 0.12 | 67 | 1015.7 |
| 20260905225027 | 84 | 236 | 0.0 | 1.0 | 0.00 | 0.00 | 0.02 | 68 | 1009.7 |
| 20260905225017 | 85 | 259 | 0.0 | 0.0 | 0.00 | 0.12 | 0.12 | 67 | 1015.7 |
| 20260905224533 | 85 | 259 | 0.0 | 2.0 | 0.00 | 0.12 | 0.12 | 66 | 1015.8 |
| 20260905224026 | 85 | 236 | 0.0 | 1.0 | 0.00 | 0.00 | 0.02 | 67 | 1009.8 |
| 20260905224011 | 86 | 259 | 0.0 | 2.0 | 0.00 | 0.12 | 0.12 | 64 | 1015.8 |
| 20260905223518 | 86 | 259 | 0.0 | 2.0 | 0.00 | 0.12 | 0.12 | 63 | 1015.7 |
| 20260905223030 | 87 | 259 | 0.0 | 2.0 | 0.00 | 0.12 | 0.12 | 64 | 1015.6 |
| 20260905223025 | 86 | 236 | 0.0 | 3.0 | 0.00 | 0.00 | 0.02 | 64 | 1009.6 |
| 20260905222512 | 87 | 259 | 0.0 | 2.0 | 0.00 | 0.12 | 0.12 | 62 | 1015.5 |
| 20260905222013 | 87 | 242 | 1.0 | 4.0 | 0.00 | 0.12 | 0.12 | 60 | 1015.6 |
| 20260905221530 | 87 | 304 | 1.0 | 4.0 | 0.00 | 0.12 | 0.12 | 60 | 1015.6 |
| 20260905221023 | 87 | 273 | 1.0 | 3.0 | 0.00 | 0.00 | 0.02 | 59 | 1009.6 |
| 20260905221017 | 87 | 196 | 1.0 | 3.0 | 0.00 | 0.12 | 0.12 | 62 | 1015.6 |
| 20260905220512 | 87 | 253 | 1.0 | 3.0 | 0.00 | 0.12 | 0.12 | 59 | 1015.7 |
| 20260905220024 | 87 | 250 | 0.0 | 3.0 | 0.00 | 0.12 | 0.12 | 59 | 1015.8 |
| 20260905215516 | 87 | 274 | 1.0 | 3.0 | 0.00 | 0.12 | 0.12 | 58 | 1015.9 |
| 20260905215021 | 88 | 277 | 2.0 | 4.0 | 0.00 | 0.00 | 0.02 | 61 | 1009.9 |
| 20260905215019 | 87 | 331 | 1.0 | 3.0 | 0.00 | 0.12 | 0.12 | 58 | 1015.9 |
| 20260905214520 | 87 | 207 | 1.0 | 4.0 | 0.00 | 0.12 | 0.12 | 58 | 1015.9 |
| 20260905214020 | 88 | 264 | 2.0 | 4.0 | 0.00 | 0.00 | 0.01 | 59 | 1010.0 |
| 20260905214013 | 87 | 163 | 1.0 | 4.0 | 0.00 | 0.12 | 0.12 | 58 | 1016.0 |
| 20260905213515 | 87 | 267 | 0.0 | 5.0 | 0.00 | 0.12 | 0.12 | 59 | 1015.8 |
| 20260905213019 | 87 | 258 | 2.0 | 4.0 | 0.00 | 0.00 | 0.01 | 57 | 1009.9 |
| 20260905213015 | 87 | 198 | 3.0 | 5.0 | 0.00 | 0.12 | 0.12 | 60 | 1015.9 |
| 20260905212512 | 87 | 270 | 1.0 | 5.0 | 0.00 | 0.12 | 0.12 | 57 | 1015.9 |
| 20260905212018 | 87 | 134 | 1.0 | 3.0 | 0.00 | 0.00 | 0.01 | 57 | 1010.1 |
| 20260905211517 | 86 | 38 | 1.0 | 4.0 | 0.00 | 0.12 | 0.12 | 59 | 1016.0 |
| 20260905211017 | 86 | 279 | 1.0 | 4.0 | 0.00 | 0.00 | 0.01 | 56 | 1010.1 |
| 20260905211012 | 86 | 148 | 2.0 | 6.0 | 0.00 | 0.12 | 0.12 | 57 | 1016.0 |
| 20260905210514 | 86 | 304 | 1.0 | 6.0 | 0.00 | 0.12 | 0.12 | 57 | 1015.9 |
| 20260905210038 | 86 | 272 | 2.0 | 7.0 | 0.00 | 0.12 | 0.12 | 60 | 1016.0 |
| 20260905210016 | 86 | 286 | 3.0 | 5.0 | 0.00 | 0.00 | 0.01 | 57 | 1010.0 |
| 20260905205516 | 86 | 215 | 2.0 | 7.0 | 0.00 | 0.12 | 0.12 | 58 | 1016.0 |
| 20260905205016 | 86 | 277 | 1.0 | 5.0 | 0.00 | 0.12 | 0.12 | 59 | 1016.0 |
| 20260905205014 | 86 | 292 | 5.0 | 5.0 | 0.00 | 0.00 | 0.01 | 58 | 1010.0 |
| 20260905204533 | 86 | 147 | 2.0 | 5.0 | 0.00 | 0.12 | 0.12 | 59 | 1016.0 |
| 20260905204017 | 86 | 132 | 1.0 | 7.0 | 0.00 | 0.12 | 0.12 | 57 | 1016.2 |
| 20260905203514 | 85 | 173 | 4.0 | 7.0 | 0.00 | 0.12 | 0.12 | 59 | 1016.2 |
| 20260905203030 | 85 | 224 | 1.0 | 3.0 | 0.00 | 0.12 | 0.12 | 63 | 1016.2 |
| 20260905203013 | 86 | 272 | 0.0 | 3.0 | 0.00 | 0.00 | 0.01 | 60 | 1010.1 |
| 20260905202508 | 85 | 249 | 1.0 | 3.0 | 0.00 | 0.12 | 0.12 | 63 | 1016.2 |
| 20260905202012 | 86 | 279 | 2.0 | 5.0 | 0.00 | 0.00 | 0.01 | 61 | 1010.4 |
| 20260905202003 | 85 | 292 | 2.0 | 3.0 | 0.00 | 0.12 | 0.12 | 63 | 1016.4 |
| 20260905201503 | 85 | 248 | 1.0 | 4.0 | 0.00 | 0.12 | 0.12 | 61 | 1016.4 |
| 20260905201010 | 85 | 165 | 2.0 | 4.0 | 0.00 | 0.00 | 0.01 | 61 | 1010.5 |
| 20260905201002 | 85 | 238 | 2.0 | 4.0 | 0.00 | 0.12 | 0.12 | 62 | 1016.5 |
| 20260905200506 | 85 | 207 | 2.0 | 4.0 | 0.00 | 0.12 | 0.12 | 64 | 1016.6 |
| 20260905200010 | 85 | 243 | 2.0 | 5.0 | 0.00 | 0.00 | 0.01 | 64 | 1010.6 |
| 20260905200003 | 85 | 225 | 2.0 | 3.0 | 0.00 | 0.12 | 0.12 | 64 | 1016.6 |
| 20260905195503 | 85 | 254 | 1.0 | 5.0 | 0.00 | 0.12 | 0.12 | 65 | 1016.6 |
| 20260905195004 | 85 | 226 | 3.0 | 5.0 | 0.00 | 0.12 | 0.12 | 64 | 1016.7 |
| 20260905194503 | 84 | 265 | 2.0 | 4.0 | 0.00 | 0.12 | 0.12 | 66 | 1016.7 |
| 20260905194007 | 84 | 183 | 1.0 | 6.0 | 0.00 | 0.00 | 0.01 | 64 | 1010.8 |
| 20260905194002 | 84 | 235 | 2.0 | 6.0 | 0.00 | 0.12 | 0.12 | 64 | 1016.8 |
| 20260905193502 | 84 | 231 | 0.0 | 6.0 | 0.00 | 0.12 | 0.12 | 65 | 1017.0 |
| 20260905193015 | 84 | 167 | 3.0 | 6.0 | 0.00 | 0.12 | 0.12 | 64 | 1017.2 |
| 20260905193006 | 84 | 176 | 2.0 | 7.0 | 0.00 | 0.00 | 0.01 | 65 | 1011.0 |
| 20260905192503 | 83 | 187 | 1.0 | 4.0 | 0.00 | 0.12 | 0.12 | 66 | 1017.3 |
| 20260905192002 | 82 | 208 | 2.0 | 4.0 | 0.00 | 0.12 | 0.12 | 69 | 1017.3 |
| 20260905191508 | 82 | 269 | 0.0 | 4.0 | 0.00 | 0.12 | 0.12 | 68 | 1017.3 |
| 20260905191015 | 82 | 46 | 0.0 | 4.0 | 0.00 | 0.12 | 0.12 | 68 | 1017.4 |
| 20260905191004 | 83 | 339 | 2.0 | 4.0 | 0.00 | 0.00 | 0.01 | 64 | 1011.3 |
| 20260905190502 | 81 | 352 | 0.0 | 2.0 | 0.00 | 0.12 | 0.12 | 70 | 1017.3 |
| 20260905190004 | 82 | 204 | 0.0 | 3.0 | 0.00 | 0.00 | 0.01 | 68 | 1011.2 |
| 20260905185504 | 80 | 267 | 0.0 | 4.0 | 0.00 | 0.12 | 0.12 | 73 | 1017.5 |
| 20260905185003 | 80 | 205 | 2.0 | 3.0 | 0.00 | 0.00 | 0.01 | 70 | 1011.4 |
| 20260905184503 | 79 | 192 | 2.0 | 4.0 | 0.00 | 0.12 | 0.12 | 74 | 1017.7 |
| 20260905184003 | 79 | 106 | 1.0 | 6.0 | 0.00 | 0.12 | 0.12 | 72 | 1017.7 |
| 20260905183503 | 78 | 143 | 2.0 | 6.0 | 0.00 | 0.12 | 0.12 | 77 | 1017.6 |
| 20260905183003 | 78 | 166 | 3.0 | 5.0 | 0.00 | 0.12 | 0.12 | 80 | 1017.9 |
| 20260905183000 | 78 | 219 | 5.0 | 7.0 | 0.00 | 0.00 | 0.01 | 78 | 1011.7 |
| 20260905182506 | 77 | 173 | 2.0 | 5.0 | 0.00 | 0.12 | 0.12 | 79 | 1018.0 |
| 20260905182008 | 76 | 139 | 2.0 | 5.0 | 0.00 | 0.12 | 0.12 | 79 | 1018.1 |
| 20260905181959 | 77 | 125 | 2.0 | 4.0 | 0.00 | 0.00 | 0.01 | 78 | 1011.9 |
| 20260905181511 | 75 | 173 | 4.0 | 6.0 | 0.00 | 0.12 | 0.12 | 81 | 1018.3 |
| 20260905181004 | 74 | 147 | 2.0 | 6.0 | 0.00 | 0.12 | 0.12 | 84 | 1018.4 |
| 20260905180508 | 73 | 138 | 3.0 | 5.0 | 0.01 | 0.12 | 0.12 | 85 | 1018.5 |
| 20260905180017 | 73 | 136 | 3.0 | 5.0 | 0.01 | 0.12 | 0.12 | 87 | 1018.4 |
| 20260905175957 | 74 | 98 | 3.0 | 4.0 | 0.00 | 0.00 | 0.01 | 90 | 1012.2 |
| 20260905175503 | 72 | 147 | 3.0 | 8.0 | 0.02 | 0.12 | 0.12 | 90 | 1018.5 |
| 20260905175007 | 71 | 132 | 3.0 | 8.0 | 0.04 | 0.12 | 0.12 | 91 | 1018.5 |
| 20260905174956 | 71 | 171 | 0.0 | 6.0 | 0.00 | 0.00 | 0.01 | 90 | 1012.3 |
| 20260905174515 | 70 | 156 | 4.0 | 6.0 | 0.04 | 0.12 | 0.12 | 91 | 1018.8 |
| 20260905174003 | 70 | 169 | 3.0 | 4.0 | 0.09 | 0.12 | 0.12 | 90 | 1019.2 |
| 20260905173955 | 70 | 144 | 3.0 | 3.0 | 0.00 | 0.00 | 0.01 | 91 | 1012.9 |
| 20260905173504 | 69 | 136 | 3.0 | 6.0 | 0.12 | 0.12 | 0.12 | 89 | 1019.5 |
| 20260905173005 | 69 | 146 | 2.0 | 6.0 | 0.12 | 0.12 | 0.12 | 89 | 1019.9 |
| 20260905172954 | 70 | 148 | 1.0 | 6.0 | 0.00 | 0.00 | 0.01 | 89 | 1013.6 |
| 20260905172503 | 69 | 158 | 2.0 | 8.0 | 0.12 | 0.12 | 0.12 | 90 | 1019.9 |
| 20260905172004 | 69 | 76 | 0.0 | 11.0 | 0.12 | 0.12 | 0.12 | 90 | 1020.0 |
| 20260905171953 | 70 | 77 | 3.0 | 8.0 | 0.00 | 0.00 | 0.01 | 90 | 1013.6 |
| 20260905171507 | 69 | 135 | 4.0 | 11.0 | 0.12 | 0.12 | 0.12 | 89 | 1020.3 |
| 20260905171007 | 70 | 143 | 4.0 | 11.0 | 0.12 | 0.12 | 0.12 | 89 | 1020.6 |
| 20260905170952 | 70 | 119 | 7.0 | 11.0 | 0.00 | 0.00 | 0.01 | 89 | 1014.2 |
| 20260905170506 | 70 | 153 | 6.0 | 11.0 | 0.11 | 0.11 | 0.11 | 88 | 1020.5 |
| 20260905170004 | 70 | 122 | 5.0 | 7.0 | 0.11 | 0.11 | 0.11 | 87 | 1020.4 |
| 20260905165951 | 71 | 95 | 4.0 | 7.0 | 0.00 | 0.00 | 0.01 | 86 | 1014.1 |
| 20260905165508 | 70 | 319 | 0.0 | 9.0 | 0.10 | 0.10 | 0.10 | 87 | 1020.1 |
| 20260905165015 | 71 | 13 | 4.0 | 9.0 | 0.08 | 0.08 | 0.08 | 85 | 1019.9 |
| 20260905164523 | 72 | 11 | 2.0 | 17.0 | 0.08 | 0.08 | 0.08 | 83 | 1019.6 |
| 20260905164004 | 74 | 350 | 11.0 | 18.0 | 0.03 | 0.03 | 0.03 | 78 | 1019.7 |
| 20260905163505 | 75 | 39 | 10.0 | 23.0 | 0.00 | 0.00 | 0.00 | 71 | 1019.4 |
| 20260905163004 | 77 | 23 | 9.0 | 32.0 | 0.00 | 0.00 | 0.00 | 68 | 1019.7 |
| 20260905162503 | 79 | 18 | 16.0 | 38.0 | 0.00 | 0.00 | 0.00 | 64 | 1019.5 |
| 20260905162003 | 84 | 352 | 19.0 | 38.0 | 0.00 | 0.00 | 0.00 | 58 | 1019.5 |
| 20260905161947 | 86 | 58 | 19.0 | 24.0 | 0.00 | 0.00 | 0.00 | 54 | 1013.1 |
| 20260905161509 | 88 | 31 | 6.0 | 9.0 | 0.00 | 0.00 | 0.00 | 64 | 1018.8 |
| 20260905161004 | 88 | 20 | 1.0 | 4.0 | 0.00 | 0.00 | 0.00 | 63 | 1018.5 |
| 20260905160946 | 89 | 349 | 1.0 | 3.0 | 0.00 | 0.00 | 0.00 | 59 | 1012.2 |
| 20260905160506 | 88 | 5 | 2.0 | 7.0 | 0.00 | 0.00 | 0.00 | 63 | 1018.4 |
| 20260905160013 | 88 | 21 | 2.0 | 7.0 | 0.00 | 0.00 | 0.00 | 62 | 1018.8 |
| 20260905155945 | 89 | 289 | 1.0 | 4.0 | 0.00 | 0.00 | 0.00 | 60 | 1012.5 |
| 20260905155510 | 88 | 46 | 5.0 | 7.0 | 0.00 | 0.00 | 0.00 | 61 | 1018.8 |
| 20260905155002 | 88 | 140 | 1.0 | 4.0 | 0.00 | 0.00 | 0.00 | 63 | 1018.8 |
| 20260905154943 | 89 | 59 | 1.0 | 4.0 | 0.00 | 0.00 | 0.00 | 61 | 1012.4 |
| 20260905154507 | 88 | 24 | 1.0 | 4.0 | 0.00 | 0.00 | 0.00 | 63 | 1018.7 |
| 20260905154012 | 88 | 22 | 1.0 | 5.0 | 0.00 | 0.00 | 0.00 | 64 | 1018.9 |
| 20260905153943 | 89 | 209 | 0.0 | 5.0 | 0.00 | 0.00 | 0.00 | 63 | 1012.5 |
| 20260905153516 | 88 | 296 | 2.0 | 5.0 | 0.00 | 0.00 | 0.00 | 67 | 1018.8 |
| 20260905153011 | 87 | 219 | 2.0 | 6.0 | 0.00 | 0.00 | 0.00 | 64 | 1018.8 |
| 20260905152942 | 88 | 219 | 3.0 | 5.0 | 0.00 | 0.00 | 0.00 | 63 | 1012.4 |
| 20260905152507 | 87 | 294 | 2.0 | 6.0 | 0.00 | 0.00 | 0.00 | 64 | 1018.7 |
| 20260905152004 | 87 | 279 | 1.0 | 6.0 | 0.00 | 0.00 | 0.00 | 63 | 1018.6 |
| 20260905151941 | 88 | 309 | 2.0 | 7.0 | 0.00 | 0.00 | 0.00 | 65 | 1012.2 |
| 20260905151506 | 87 | 10 | 1.0 | 5.0 | 0.00 | 0.00 | 0.00 | 65 | 1018.6 |
| 20260905151006 | 86 | 237 | 2.0 | 6.0 | 0.00 | 0.00 | 0.00 | 69 | 1018.6 |
| 20260905150511 | 86 | 319 | 2.0 | 6.0 | 0.00 | 0.00 | 0.00 | 67 | 1018.6 |
| 20260905150017 | 86 | 17 | 1.0 | 6.0 | 0.00 | 0.00 | 0.00 | 67 | 1018.5 |
| 20260905145939 | 86 | 163 | 1.0 | 6.0 | 0.00 | 0.00 | 0.00 | 68 | 1012.2 |
| 20260905145506 | 85 | 209 | 2.0 | 6.0 | 0.00 | 0.00 | 0.00 | 68 | 1018.5 |
| 20260905145009 | 85 | 207 | 3.0 | 5.0 | 0.00 | 0.00 | 0.00 | 70 | 1018.5 |
| 20260905144937 | 86 | 238 | 3.0 | 4.0 | 0.00 | 0.00 | 0.00 | 68 | 1012.2 |
| 20260905144518 | 85 | 207 | 1.0 | 6.0 | 0.00 | 0.00 | 0.00 | 69 | 1018.6 |
| 20260905144009 | 84 | 270 | 2.0 | 6.0 | 0.00 | 0.00 | 0.00 | 69 | 1018.7 |
| 20260905143505 | 85 | 36 | 3.0 | 6.0 | 0.00 | 0.00 | 0.00 | 69 | 1018.7 |
| 20260905143029 | 84 | 215 | 1.0 | 3.0 | 0.00 | 0.00 | 0.00 | 69 | 1018.8 |
| 20260905142936 | 85 | 213 | 1.0 | 7.0 | 0.00 | 0.00 | 0.00 | 69 | 1012.4 |
| 20260905142516 | 84 | 275 | 1.0 | 3.0 | 0.00 | 0.00 | 0.00 | 70 | 1018.8 |
| 20260905142007 | 84 | 243 | 1.0 | 4.0 | 0.00 | 0.00 | 0.00 | 71 | 1018.8 |
| 20260905141934 | 84 | 221 | 1.0 | 5.0 | 0.00 | 0.00 | 0.00 | 70 | 1012.4 |
| 20260905141514 | 83 | 302 | 2.0 | 4.0 | 0.00 | 0.00 | 0.00 | 71 | 1018.8 |
| 20260905141013 | 83 | 230 | 0.0 | 5.0 | 0.00 | 0.00 | 0.00 | 71 | 1018.8 |
| 20260905140934 | 84 | 262 | 0.0 | 4.0 | 0.00 | 0.00 | 0.00 | 69 | 1012.4 |
| 20260905140506 | 82 | 145 | 0.0 | 5.0 | 0.00 | 0.00 | 0.00 | 74 | 1018.7 |
| 20260905140009 | 82 | 271 | 2.0 | 6.0 | 0.00 | 0.00 | 0.00 | 75 | 1018.6 |
| 20260905135933 | 83 | 252 | 2.0 | 4.0 | 0.00 | 0.00 | 0.00 | 71 | 1012.3 |
| 20260905135508 | 81 | 157 | 4.0 | 6.0 | 0.00 | 0.00 | 0.00 | 76 | 1018.7 |
| 20260905135008 | 81 | 167 | 0.0 | 6.0 | 0.00 | 0.00 | 0.00 | 76 | 1018.8 |
| 20260905134524 | 80 | 110 | 1.0 | 6.0 | 0.00 | 0.00 | 0.00 | 77 | 1018.8 |
| 20260905134008 | 80 | 196 | 1.0 | 4.0 | 0.00 | 0.00 | 0.00 | 77 | 1018.8 |
| 20260905133931 | 81 | 183 | 0.0 | 4.0 | 0.00 | 0.00 | 0.00 | 74 | 1012.5 |
| 20260905133510 | 80 | 148 | 2.0 | 4.0 | 0.00 | 0.00 | 0.00 | 78 | 1018.9 |
| 20260905133018 | 79 | 175 | 3.0 | 4.0 | 0.00 | 0.00 | 0.00 | 80 | 1018.9 |
| 20260905132929 | 81 | 136 | 2.0 | 6.0 | 0.00 | 0.00 | 0.00 | 78 | 1012.6 |
| 20260905132509 | 79 | 179 | 2.0 | 5.0 | 0.00 | 0.00 | 0.00 | 81 | 1018.8 |
| 20260905132014 | 78 | 167 | 3.0 | 5.0 | 0.00 | 0.00 | 0.00 | 82 | 1018.9 |
| 20260905131928 | 80 | 177 | 1.0 | 3.0 | 0.00 | 0.00 | 0.00 | 81 | 1012.7 |
| 20260905131526 | 78 | 197 | 2.0 | 5.0 | 0.00 | 0.00 | 0.00 | 82 | 1019.1 |
| 20260905131020 | 77 | 239 | 1.0 | 5.0 | 0.00 | 0.00 | 0.00 | 84 | 1019.0 |
| 20260905130927 | 79 | 193 | 3.0 | 4.0 | 0.00 | 0.00 | 0.00 | 80 | 1012.8 |
| 20260905130507 | 77 | 190 | 2.0 | 3.0 | 0.00 | 0.00 | 0.00 | 85 | 1019.1 |
| 20260905130025 | 76 | 181 | 1.0 | 2.0 | 0.00 | 0.00 | 0.00 | 86 | 1019.1 |
| 20260905125926 | 78 | 132 | 2.0 | 3.0 | 0.00 | 0.00 | 0.00 | 84 | 1013.0 |
| 20260905125516 | 76 | 118 | 0.0 | 2.0 | 0.00 | 0.00 | 0.00 | 87 | 1019.2 |
| 20260905125008 | 75 | 126 | 0.0 | 2.0 | 0.00 | 0.00 | 0.00 | 89 | 1019.2 |
| 20260905124522 | 74 | 126 | 0.0 | 2.0 | 0.00 | 0.00 | 0.00 | 92 | 1019.3 |
| 20260905124008 | 73 | 126 | 0.0 | 2.0 | 0.00 | 0.00 | 0.00 | 94 | 1019.3 |
| 20260905123925 | 75 | 130 | 0.0 | 0.0 | 0.00 | 0.00 | 0.00 | 89 | 1013.2 |
| 20260905123516 | 73 | 126 | 0.0 | 2.0 | 0.00 | 0.00 | 0.00 | 94 | 1019.3 |
| 20260905123045 | 72 | 126 | 0.0 | 2.0 | 0.00 | 0.00 | 0.00 | 94 | 1019.3 |
| 20260905122511 | 72 | 54 | 0.0 | 0.0 | 0.00 | 0.00 | 0.00 | 94 | 1019.2 |
| 20260905122014 | 71 | 54 | 0.0 | 0.0 | 0.00 | 0.00 | 0.00 | 94 | 1019.1 |
| 20260905121922 | 73 | 130 | 0.0 | 0.0 | 0.00 | 0.00 | 0.00 | 93 | 1013.0 |
| 20260905121525 | 71 | 54 | 0.0 | 0.0 | 0.00 | 0.00 | 0.00 | 94 | 1019.0 |
| 20260905121012 | 71 | 54 | 0.0 | 1.0 | 0.00 | 0.00 | 0.00 | 94 | 1019.0 |
| 20260905120922 | 72 | 130 | 0.0 | 0.0 | 0.00 | 0.00 | 0.00 | 93 | 1012.9 |
| 20260905120515 | 71 | 54 | 0.0 | 2.0 | 0.00 | 0.00 | 0.00 | 94 | 1018.8 |
| 20260905120031 | 70 | 351 | 0.0 | 2.0 | 0.00 | 0.00 | 0.00 | 95 | 1018.7 |
| 20260905115920 | 72 | 130 | 0.0 | 2.0 | 0.00 | 0.00 | 0.00 | 93 | 1012.7 |
| 20260905115511 | 70 | 107 | 0.0 | 2.0 | 0.00 | 0.00 | 0.00 | 94 | 1018.6 |
| 20260905115012 | 70 | 107 | 1.0 | 2.0 | 0.00 | 0.00 | 0.00 | 94 | 1018.5 |
| 20260905114919 | 71 | 130 | 0.0 | 1.0 | 0.00 | 0.00 | 0.00 | 94 | 1012.4 |
| 20260905114530 | 69 | 137 | 1.0 | 2.0 | 0.00 | 0.00 | 0.00 | 94 | 1018.4 |
| 20260905114018 | 69 | 101 | 0.0 | 2.0 | 0.00 | 0.00 | 0.00 | 94 | 1018.4 |
| 20260905113508 | 69 | 123 | 1.0 | 2.0 | 0.00 | 0.00 | 0.00 | 93 | 1018.3 |
| 20260905113015 | 69 | 136 | 0.0 | 2.0 | 0.00 | 0.00 | 0.00 | 94 | 1018.4 |
| 20260905112503 | 69 | 136 | 0.0 | 2.0 | 0.00 | 0.00 | 0.00 | 93 | 1018.3 |
| 20260905112004 | 69 | 136 | 0.0 | 2.0 | 0.00 | 0.00 | 0.00 | 93 | 1018.3 |
| 20260905111916 | 70 | 140 | 0.0 | 0.0 | 0.00 | 0.00 | 0.00 | 93 | 1012.3 |
| 20260905111504 | 69 | 117 | 0.0 | 2.0 | 0.00 | 0.00 | 0.00 | 93 | 1018.2 |
| 20260905111004 | 69 | 117 | 0.0 | 0.0 | 0.00 | 0.00 | 0.00 | 93 | 1018.2 |
| 20260905110915 | 70 | 140 | 0.0 | 0.0 | 0.00 | 0.00 | 0.00 | 92 | 1012.2 |
| 20260905110505 | 69 | 117 | 0.0 | 0.0 | 0.00 | 0.00 | 0.00 | 93 | 1018.1 |
| 20260905110006 | 69 | 117 | 0.0 | 0.0 | 0.00 | 0.00 | 0.00 | 93 | 1017.9 |
| 20260905105504 | 69 | 117 | 0.0 | 0.0 | 0.00 | 0.00 | 0.00 | 93 | 1017.8 |
| 20260905105003 | 70 | 117 | 0.0 | 1.0 | 0.00 | 0.00 | 0.00 | 93 | 1017.7 |
| 20260905104913 | 70 | 120 | 0.0 | 2.0 | 0.00 | 0.00 | 0.00 | 91 | 1011.8 |
| 20260905104508 | 70 | 117 | 0.0 | 1.0 | 0.00 | 0.00 | 0.00 | 93 | 1017.7 |
| 20260905104005 | 70 | 117 | 0.0 | 2.0 | 0.00 | 0.00 | 0.00 | 93 | 1017.6 |
| 20260905103911 | 71 | 170 | 0.0 | 0.0 | 0.00 | 0.00 | 0.00 | 93 | 1011.7 |
| 20260905103505 | 70 | 232 | 0.0 | 2.0 | 0.00 | 0.00 | 0.00 | 93 | 1017.6 |
| 20260905103014 | 70 | 317 | 0.0 | 0.0 | 0.00 | 0.00 | 0.00 | 93 | 1017.7 |
| 20260905102911 | 70 | 170 | 0.0 | 0.0 | 0.00 | 0.00 | 0.00 | 92 | 1011.8 |
| 20260905102510 | 70 | 317 | 0.0 | 0.0 | 0.00 | 0.00 | 0.00 | 93 | 1017.7 |
| 20260905102003 | 70 | 317 | 0.0 | 2.0 | 0.00 | 0.00 | 0.00 | 93 | 1017.7 |
| 20260905101909 | 70 | 170 | 0.0 | 0.0 | 0.00 | 0.00 | 0.00 | 92 | 1011.8 |
| 20260905101510 | 70 | 317 | 0.0 | 4.0 | 0.00 | 0.00 | 0.00 | 93 | 1017.7 |
| 20260905101010 | 70 | 345 | 2.0 | 4.0 | 0.00 | 0.00 | 0.00 | 93 | 1017.6 |
| 20260905100908 | 70 | 170 | 0.0 | 0.0 | 0.00 | 0.00 | 0.00 | 91 | 1011.7 |
| 20260905100503 | 70 | 319 | 1.0 | 4.0 | 0.00 | 0.00 | 0.00 | 93 | 1017.6 |
| 20260905100004 | 70 | 5 | 2.0 | 4.0 | 0.00 | 0.00 | 0.00 | 93 | 1017.6 |
| 20260905095908 | 70 | 170 | 0.0 | 0.0 | 0.00 | 0.00 | 0.00 | 91 | 1011.6 |
| 20260905095503 | 70 | 350 | 1.0 | 2.0 | 0.00 | 0.00 | 0.00 | 93 | 1017.5 |
| 20260905095006 | 70 | 173 | 0.0 | 2.0 | 0.00 | 0.00 | 0.00 | 92 | 1017.4 |
| 20260905094906 | 70 | 170 | 0.0 | 0.0 | 0.00 | 0.00 | 0.00 | 91 | 1011.4 |
| 20260905094505 | 70 | 173 | 0.0 | 1.0 | 0.00 | 0.00 | 0.00 | 92 | 1017.3 |
| 20260905094004 | 70 | 173 | 0.0 | 0.0 | 0.00 | 0.00 | 0.00 | 92 | 1017.3 |
| 20260905093906 | 70 | 170 | 0.0 | 0.0 | 0.00 | 0.00 | 0.00 | 90 | 1011.3 |
| 20260905093509 | 70 | 173 | 0.0 | 2.0 | 0.00 | 0.00 | 0.00 | 92 | 1017.3 |
| 20260905093011 | 70 | 173 | 0.0 | 2.0 | 0.00 | 0.00 | 0.00 | 92 | 1017.3 |
| 20260905092904 | 71 | 170 | 0.0 | 0.0 | 0.00 | 0.00 | 0.00 | 90 | 1011.3 |
| 20260905092508 | 70 | 173 | 0.0 | 1.0 | 0.00 | 0.00 | 0.00 | 92 | 1017.3 |
| 20260905092006 | 70 | 173 | 0.0 | 0.0 | 0.00 | 0.00 | 0.00 | 91 | 1017.2 |
| 20260905091903 | 71 | 170 | 0.0 | 0.0 | 0.00 | 0.00 | 0.00 | 90 | 1011.2 |
| 20260905091520 | 70 | 173 | 0.0 | 2.0 | 0.00 | 0.00 | 0.00 | 91 | 1017.2 |
| 20260905091013 | 70 | 173 | 0.0 | 2.0 | 0.00 | 0.00 | 0.00 | 91 | 1017.2 |
| 20260905090902 | 71 | 170 | 0.0 | 0.0 | 0.00 | 0.00 | 0.00 | 90 | 1011.2 |
| 20260905090506 | 71 | 173 | 0.0 | 0.0 | 0.00 | 0.00 | 0.00 | 91 | 1017.3 |
| 20260905090018 | 71 | 173 | 0.0 | 0.0 | 0.00 | 0.00 | 0.00 | 90 | 1017.3 |
| 20260905085901 | 71 | 170 | 0.0 | 0.0 | 0.00 | 0.00 | 0.00 | 90 | 1011.3 |
| 20260905085512 | 71 | 173 | 0.0 | 0.0 | 0.00 | 0.00 | 0.00 | 90 | 1017.3 |
| 20260905085002 | 71 | 173 | 0.0 | 0.0 | 0.00 | 0.00 | 0.00 | 90 | 1017.3 |
| 20260905084901 | 72 | 170 | 0.0 | 0.0 | 0.00 | 0.00 | 0.00 | 89 | 1011.4 |
| 20260905084507 | 71 | 173 | 0.0 | 1.0 | 0.00 | 0.00 | 0.00 | 90 | 1017.4 |
| 20260905084003 | 71 | 173 | 0.0 | 2.0 | 0.00 | 0.00 | 0.00 | 90 | 1017.4 |
| 20260905083900 | 72 | 170 | 0.0 | 0.0 | 0.00 | 0.00 | 0.00 | 89 | 1011.4 |
| 20260905083508 | 71 | 113 | 0.0 | 2.0 | 0.00 | 0.00 | 0.00 | 90 | 1017.4 |